Location: Julian California
(33.0790°N, 116.6010°W)
Time: 18:38:32
(UTC-07:00)

ERS-1 Rocket - Pass Details

Date: 14 June 2018
Orbit: 752 x 759 km, 98.6° (Epoch: 20 August)

Event Time Altitude Azimuth Distance (km) Brightness Sun altitude
Exits shadow 22:26:56 42° 215° (SW) 1,061 3.5 -24.5°
Maximum altitude 22:28:09 53° 259° (W) 927 3.5 -24.6°
Drops below altitude 10° 22:33:03 10° 336° (NNW) 2,285 6.5 -25.2°
Sets 22:35:25 0° 342° (NNW) 3,215 7.5 -25.5°
